THORAD AGENA D DEB

Satellite information

Favourite Embed

Satellite Type and Status

DEBRISIN ORBIT

Key statistics

Satellite THORAD AGENA D DEB at a glance.

Uptime

20124

Days in orbit

Revolutions

≈ 13.5

Per day

Orbit

SSO

Sun Synchronous Orbit

Inclination

99.5

Latest

Satellite identification and parameters

Extended collection of information and parameters for THORAD AGENA D DEB.

Object identification

Identified? True

Debris? True

Object name: THORAD AGENA D DEB

International designator: 1970-025EU

Object number (NORAD): 4864

Object ID (CCSDS): 4864

Country: UNITED STATES OF AMERICA (US)

Current information (Y/N): Y

RCS size: SMALL

Orbital parameters

Period: 106.714 minutes

Inclination: 99.4841 deg

SMA: 7452.615 km

Apoapsis: 1109.435 km

Periapsis: 1039.526 km

RAAN: 261.7279 deg

Eccentricy: 0.0046902

Argument of periapsis: 47.0356 deg

Mean anomaly: 105.5352 deg

Mean motion: 13.49396894 rev/day

Mean motion (dot): 0.00000111 rev/day2

B* drag term: 0.00024064 1/REarth

Two-line elements (TLE)

Creation date: May 12, 2025, 10:16 p.m.

Reference frame: TEME

Reference center: EARTH

Epoch: May 12, 2025, 8:06 p.m. UTC

TLE line 0: 0 THORAD AGENA D DEB

TLE line 1: 1 4864U 70025EU 25132.83775128 .00000111 00000-0 24064-3 0 9992

TLE line 2: 2 4864 99.4841 261.7279 0046902 47.0356 105.5352 13.49396894707404

Live tracking on map

Real-time ground track for satellite THORAD AGENA D DEB.

In-orbit conjunctions

A list of the most updated potential collisions computed for object THORAD AGENA D DEB.

Target Orbit TCA Probability of collision Miss distance Type
COSMOS 970 DEB LEO 2024-09-15 17:47:36 0.0001838579 219.0 (m) DEBRIS

Associated space launch

Meteorological research and development satellite

THORAD AGENA D DEB was lifted into orbit during the mission ‘Thorad SLV-2G Agena D | Nimbus 4’, on board a Thorad SLV-2G Agena D space rocket.

The launch took place on April 8, 1970, 8:17 a.m. from Space Launch Complex 2E.

For more information about the launch, click the button.

Launch to space Thorad SLV-2G Agena D | Nimbus 4
Thorad SLV-2G Agena D | Nimbus 4

Agency: N/A

Status: Launch Successful

Launch date: April 8, 1970, 8:17 a.m. UTC

Rocket: Thorad SLV-2G Agena D

Launch pad: Space Launch Complex 2E

Location: Vandenberg SFB, CA, USA

...

Latest news about this satellite

There are no fresh news available about this satellite. Check back as we update our databases every day.


Newsletter sign-up

Weekly statistics, charts and insights to help you stay on top of the space industry.